| time (UTC) | temp F | wind direction | speed MPH | gust MPH | rain 1hr in | rain 24hr in | rain mn in | humidity % | barometer mb |
| 20260906194502 | 75 | 337 | 1.0 | 6.0 | 0.00 | 0.02 | 0.02 | 70 | 1013.8 |
| 20260906193048 | 74 | 215 | 1.0 | 4.0 | 0.00 | 0.02 | 0.02 | 72 | 1013.9 |
| 20260906191517 | 74 | 207 | 1.0 | 5.0 | 0.00 | 0.02 | 0.02 | 70 | 1014.0 |
| 20260906190140 | 74 | 215 | 1.0 | 7.0 | 0.00 | 0.02 | 0.02 | 71 | 1014.0 |
| 20260906184538 | 75 | 227 | 2.0 | 8.0 | 0.00 | 0.02 | 0.02 | 70 | 1013.9 |
| 20260906183011 | 76 | 27 | 1.0 | 9.0 | 0.00 | 0.02 | 0.02 | 72 | 1014.1 |
| 20260906181553 | 75 | 225 | 0.0 | 7.0 | 0.01 | 0.02 | 0.02 | 72 | 1014.0 |
| 20260906180022 | 76 | 33 | 2.0 | 6.0 | 0.02 | 0.02 | 0.02 | 71 | 1013.9 |
| 20260906174607 | 76 | 214 | 1.0 | 7.0 | 0.02 | 0.02 | 0.02 | 75 | 1013.9 |
| 20260906173047 | 73 | 211 | 0.0 | 5.0 | 0.02 | 0.02 | 0.02 | 76 | 1014.0 |
| 20260906171512 | 74 | 197 | 2.0 | 7.0 | 0.01 | 0.01 | 0.01 | 73 | 1014.4 |
| 20260906170050 | 79 | 21 | 2.0 | 7.0 | 0.00 | 0.00 | 0.00 | 65 | 1014.0 |
| 20260906164519 | 77 | 221 | 2.0 | 6.0 | 0.00 | 0.00 | 0.00 | 67 | 1013.8 |
| 20260906163059 | 80 | 46 | 1.0 | 5.0 | 0.00 | 0.00 | 0.00 | 63 | 1014.0 |
| 20260906161525 | 80 | 295 | 1.0 | 6.0 | 0.00 | 0.00 | 0.00 | 65 | 1014.0 |
| 20260906160109 | 79 | 211 | 1.0 | 6.0 | 0.00 | 0.00 | 0.00 | 64 | 1014.0 |
| 20260906154541 | 78 | 207 | 1.0 | 6.0 | 0.00 | 0.00 | 0.00 | 66 | 1014.0 |
| 20260906153013 | 80 | 174 | 4.0 | 7.0 | 0.00 | 0.00 | 0.00 | 61 | 1014.0 |
| 20260906151600 | 81 | 236 | 1.0 | 7.0 | 0.00 | 0.00 | 0.00 | 63 | 1014.0 |
| 20260906150030 | 80 | 237 | 2.0 | 7.0 | 0.00 | 0.00 | 0.00 | 61 | 1013.9 |
| 20260906144601 | 79 | 214 | 1.0 | 10.0 | 0.00 | 0.00 | 0.00 | 67 | 1013.8 |
| 20260906143032 | 78 | 353 | 2.0 | 7.0 | 0.00 | 0.00 | 0.00 | 64 | 1013.6 |
| 20260906141608 | 78 | 27 | 2.0 | 5.0 | 0.00 | 0.00 | 0.00 | 66 | 1013.5 |
| 20260906140045 | 77 | 108 | 1.0 | 6.0 | 0.00 | 0.00 | 0.00 | 68 | 1013.4 |
| 20260906134509 | 76 | 264 | 2.0 | 9.0 | 0.00 | 0.00 | 0.00 | 70 | 1013.4 |
| 20260906133116 | 76 | 250 | 1.0 | 5.0 | 0.00 | 0.00 | 0.00 | 72 | 1013.4 |
| 20260906131533 | 75 | 269 | 1.0 | 8.0 | 0.00 | 0.00 | 0.00 | 75 | 1013.3 |
| 20260906130119 | 74 | 205 | 1.0 | 7.0 | 0.00 | 0.00 | 0.00 | 77 | 1013.2 |
| 20260906124544 | 72 | 210 | 1.0 | 5.0 | 0.00 | 0.00 | 0.00 | 80 | 1013.1 |
| 20260906123015 | 70 | 211 | 1.0 | 6.0 | 0.00 | 0.00 | 0.00 | 84 | 1013.1 |
| 20260906121555 | 68 | 223 | 1.0 | 5.0 | 0.00 | 0.00 | 0.00 | 86 | 1013.0 |
| 20260906120024 | 66 | 250 | 2.0 | 6.0 | 0.00 | 0.00 | 0.00 | 87 | 1013.1 |
| 20260906114601 | 66 | 90 | 1.0 | 6.0 | 0.00 | 0.00 | 0.00 | 88 | 1012.9 |
| 20260906113037 | 65 | 254 | 1.0 | 4.0 | 0.00 | 0.00 | 0.00 | 88 | 1012.8 |
| 20260906111611 | 65 | 332 | 2.0 | 6.0 | 0.00 | 0.00 | 0.00 | 88 | 1012.6 |
| 20260906110053 | 65 | 243 | 2.0 | 5.0 | 0.00 | 0.00 | 0.00 | 88 | 1012.3 |
| 20260906104513 | 65 | 44 | 1.0 | 5.0 | 0.00 | 0.00 | 0.00 | 88 | 1011.9 |
| 20260906103050 | 65 | 284 | 2.0 | 8.0 | 0.00 | 0.00 | 0.00 | 88 | 1011.8 |
| 20260906101523 | 65 | 212 | 0.0 | 7.0 | 0.00 | 0.00 | 0.00 | 88 | 1011.7 |
| 20260906100112 | 65 | 85 | 1.0 | 6.0 | 0.00 | 0.00 | 0.00 | 88 | 1011.5 |
| 20260906094556 | 65 | 42 | 1.0 | 6.0 | 0.00 | 0.00 | 0.00 | 88 | 1011.2 |
| 20260906093033 | 65 | 217 | 1.0 | 4.0 | 0.00 | 0.00 | 0.00 | 87 | 1011.0 |
| 20260906091549 | 66 | 37 | 1.0 | 3.0 | 0.00 | 0.00 | 0.00 | 87 | 1010.9 |
| 20260906090021 | 66 | 305 | 0.0 | 2.0 | 0.00 | 0.00 | 0.00 | 87 | 1010.8 |
| 20260906084625 | 66 | 32 | 0.0 | 3.0 | 0.00 | 0.00 | 0.00 | 87 | 1010.6 |
| 20260906083039 | 66 | 226 | 0.0 | 4.0 | 0.00 | 0.00 | 0.00 | 87 | 1010.7 |
| 20260906081504 | 66 | 356 | 0.0 | 6.0 | 0.00 | 0.00 | 0.00 | 86 | 1010.7 |
| 20260906080050 | 66 | 31 | 1.0 | 6.0 | 0.00 | 0.00 | 0.00 | 86 | 1010.7 |
| 20260906074530 | 67 | 236 | 1.0 | 6.0 | 0.00 | 0.00 | 0.00 | 87 | 1010.5 |
| 20260906073054 | 67 | 38 | 1.0 | 4.0 | 0.00 | 0.00 | 0.00 | 88 | 1010.5 |
| 20260906071525 | 67 | 26 | 0.0 | 2.0 | 0.00 | 0.00 | 0.00 | 89 | 1010.5 |
| 20260906070108 | 68 | 85 | 0.0 | 1.0 | 0.00 | 0.00 | 0.00 | 90 | 1010.5 |
| 20260906064544 | 68 | 264 | 0.0 | 1.0 | 0.00 | 0.11 | 0.00 | 89 | 1010.5 |
| 20260906063012 | 68 | 351 | 0.0 | 1.0 | 0.00 | 0.11 | 0.00 | 88 | 1010.5 |
| 20260906061602 | 68 | 353 | 0.0 | 0.0 | 0.00 | 0.11 | 0.00 | 88 | 1010.5 |
| 20260906060022 | 68 | 62 | 0.0 | 0.0 | 0.00 | 0.11 | 0.00 | 88 | 1010.6 |
| 20260906054606 | 68 | 62 | 0.0 | 0.0 | 0.00 | 0.11 | 0.00 | 87 | 1010.6 |
| 20260906053028 | 69 | 62 | 0.0 | 0.0 | 0.00 | 0.11 | 0.00 | 87 | 1010.8 |
| 20260906051613 | 69 | 61 | 0.0 | 0.0 | 0.00 | 0.11 | 0.00 | 87 | 1010.9 |
| 20260906050040 | 70 | 166 | 0.0 | 0.0 | 0.00 | 0.11 | 0.00 | 88 | 1011.0 |
| 20260906044512 | 70 | 166 | 0.0 | 0.0 | 0.00 | 0.16 | 0.00 | 87 | 1011.1 |
| 20260906043055 | 70 | 166 | 0.0 | 0.0 | 0.00 | 0.16 | 0.00 | 85 | 1011.0 |
| 20260906041542 | 70 | 166 | 0.0 | 0.0 | 0.00 | 0.16 | 0.00 | 84 | 1011.0 |
| 20260906040112 | 71 | 165 | 0.0 | 0.0 | 0.00 | 0.16 | 0.00 | 83 | 1011.2 |
| 20260906034547 | 71 | 166 | 0.0 | 0.0 | 0.00 | 0.16 | 0.16 | 82 | 1011.1 |
| 20260906033020 | 71 | 166 | 0.0 | 0.0 | 0.00 | 0.16 | 0.16 | 79 | 1011.1 |
| 20260906031559 | 72 | 165 | 0.0 | 0.0 | 0.00 | 0.16 | 0.16 | 78 | 1011.2 |
| 20260906030034 | 72 | 166 | 0.0 | 0.0 | 0.00 | 0.16 | 0.16 | 78 | 1011.1 |
| 20260906024504 | 72 | 166 | 0.0 | 0.0 | 0.00 | 0.16 | 0.16 | 77 | 1011.1 |
| 20260906023100 | 73 | 163 | 0.0 | 0.0 | 0.00 | 0.16 | 0.16 | 77 | 1011.1 |
| 20260906021525 | 73 | 167 | 0.0 | 0.0 | 0.00 | 0.16 | 0.16 | 76 | 1011.0 |
| 20260906020108 | 73 | 167 | 0.0 | 0.0 | 0.00 | 0.16 | 0.16 | 76 | 1010.9 |
| 20260906014546 | 74 | 174 | 0.0 | 1.0 | 0.00 | 0.16 | 0.16 | 75 | 1010.7 |
| 20260906013016 | 74 | 176 | 0.0 | 1.0 | 0.00 | 0.16 | 0.16 | 75 | 1010.7 |
| 20260906011559 | 74 | 160 | 0.0 | 1.0 | 0.00 | 0.16 | 0.16 | 74 | 1010.7 |
| 20260906010054 | 74 | 171 | 0.0 | 2.0 | 0.00 | 0.16 | 0.16 | 74 | 1010.5 |
| 20260906004609 | 74 | 99 | 0.0 | 2.0 | 0.00 | 0.16 | 0.16 | 74 | 1010.6 |
| 20260906003045 | 74 | 223 | 0.0 | 2.0 | 0.00 | 0.16 | 0.16 | 74 | 1010.3 |
| 20260906001507 | 75 | 130 | 0.0 | 3.0 | 0.00 | 0.16 | 0.16 | 74 | 1010.2 |
| 20260906000052 | 75 | 214 | 1.0 | 3.0 | 0.00 | 0.16 | 0.16 | 73 | 1009.9 |
| 20260905234527 | 75 | 155 | 1.0 | 3.0 | 0.00 | 0.16 | 0.16 | 73 | 1009.9 |
| 20260905233106 | 75 | 98 | 1.0 | 4.0 | 0.00 | 0.16 | 0.16 | 73 | 1009.7 |
| 20260905231543 | 76 | 34 | 1.0 | 6.0 | 0.00 | 0.16 | 0.16 | 71 | 1009.6 |
| 20260905230008 | 78 | 156 | 1.0 | 6.0 | 0.00 | 0.16 | 0.16 | 68 | 1009.4 |
| 20260905224549 | 79 | 32 | 2.0 | 7.0 | 0.00 | 0.16 | 0.16 | 55 | 1009.2 |
| 20260905223027 | 79 | 302 | 1.0 | 6.0 | 0.00 | 0.16 | 0.16 | 53 | 1009.3 |
| 20260905221559 | 79 | 30 | 2.0 | 7.0 | 0.00 | 0.16 | 0.16 | 52 | 1009.2 |
| 20260905220028 | 80 | 44 | 3.0 | 9.0 | 0.00 | 0.16 | 0.16 | 51 | 1009.0 |
| 20260905214605 | 80 | 270 | 1.0 | 7.0 | 0.00 | 0.16 | 0.16 | 51 | 1009.0 |
| 20260905213040 | 80 | 277 | 2.0 | 7.0 | 0.00 | 0.16 | 0.16 | 51 | 1008.8 |
| 20260905211513 | 80 | 264 | 2.0 | 7.0 | 0.00 | 0.16 | 0.16 | 52 | 1008.7 |
| 20260905210045 | 80 | 350 | 1.0 | 7.0 | 0.00 | 0.16 | 0.16 | 54 | 1008.8 |
| 20260905204509 | 80 | 56 | 2.0 | 5.0 | 0.00 | 0.16 | 0.16 | 58 | 1008.7 |
| 20260905203059 | 81 | 263 | 1.0 | 5.0 | 0.00 | 0.16 | 0.16 | 55 | 1008.8 |
| 20260905201526 | 82 | 57 | 1.0 | 6.0 | 0.00 | 0.16 | 0.16 | 55 | 1008.9 |